sat.trackr.live / text

‹ back to catalog

IRIDIUM 106

NORAD 41917 · 2017-003A

PAYLOAD ACTIVE UNKNOWN

§ Identity

Operator
Country
US
Launch date
2017-01-14
Launch site
AFWTR
Launch vehicle
Mass (kg)
RCS (m²)
2.80

Purposes: comms

External: N2YO · Heavens-Above · Gunter

§ Orbital elements

Epoch: 2026-09-20T02:53:06.410112Z

Period
100.40 min
Inclination
86.3949°
Eccentricity
0.0001847
Mean motion
14.34216892 rev/d
Perigee alt
776.3 km
Apogee alt
779.0 km
Semi-major
7,155.8 km
B*
2.7422e-5
RAAN
48.8335°
Arg perigee
86.5950°
Mean anomaly
273.5457°
Rev number
50,681

§ Raw data

IRIDIUM 1061 41917U 17003A   26263.12021308  .00000097  00000+0  27422-4 0  99952 41917  86.3949  48.8335 0001847  86.5950 273.5457 14.34216892506810

JSON: /api/v1/satellites/41917 · /tle

For live sub-satellite position, see the globe view (requires WebGL).

§ Visibility from observer

Set your observer location to see the next 7 days of passes ≥ 10°. The values pass through the URL so the page stays shareable.

No JS? Fill the form by hand. The geolocation button needs JavaScript.